Year,Month,Day,Hour,Minute,Value (Times are PST for temperature in C)
2013,04,01,00,00,7.40
2013,04,01,00,01,7.40
2013,04,01,00,02,7.40
2013,04,01,00,03,7.40
2013,04,01,00,04,7.40
2013,04,01,00,05,7.40
2013,04,01,00,06,7.40
2013,04,01,00,07,7.40
2013,04,01,00,08,7.40
2013,04,01,00,09,7.40
2013,04,01,00,10,7.50
2013,04,01,00,11,7.50
2013,04,01,00,12,7.50
2013,04,01,00,13,7.50
2013,04,01,00,14,7.50
2013,04,01,00,15,7.50
2013,04,01,00,16,7.50
2013,04,01,00,17,7.50
2013,04,01,00,18,7.40
2013,04,01,00,19,7.40
2013,04,01,00,20,7.40
2013,04,01,00,21,7.30
2013,04,01,00,22,7.30
2013,04,01,00,23,7.30
2013,04,01,00,24,7.30
2013,04,01,00,25,7.20
2013,04,01,00,26,7.20
2013,04,01,00,27,7.20
2013,04,01,00,28,7.10
2013,04,01,00,29,7.10
2013,04,01,00,30,7.10
2013,04,01,00,31,7.10
2013,04,01,00,32,7.00
2013,04,01,00,33,7.00
2013,04,01,00,34,7.00
2013,04,01,00,35,7.00
2013,04,01,00,36,7.00
2013,04,01,00,37,7.00
2013,04,01,00,38,7.00
2013,04,01,00,39,7.00
2013,04,01,00,40,7.00
2013,04,01,00,41,7.00
2013,04,01,00,42,7.00
2013,04,01,00,43,7.00
2013,04,01,00,44,7.00
2013,04,01,00,45,7.00
2013,04,01,00,46,7.00
2013,04,01,00,47,7.00
2013,04,01,00,48,6.90
2013,04,01,00,49,6.90
2013,04,01,00,50,6.90
2013,04,01,00,51,6.90
2013,04,01,00,52,6.90
2013,04,01,00,53,6.90
2013,04,01,00,54,6.90
2013,04,01,00,55,6.90
2013,04,01,00,56,6.90
2013,04,01,00,57,6.90
2013,04,01,00,58,6.90
2013,04,01,00,59,6.90
2013,04,01,01,00,6.80
2013,04,01,01,01,6.80
2013,04,01,01,02,6.80
2013,04,01,01,03,6.80
2013,04,01,01,04,6.80
2013,04,01,01,05,6.80
2013,04,01,01,06,6.80
2013,04,01,01,07,6.80
2013,04,01,01,08,6.80
2013,04,01,01,09,6.80
2013,04,01,01,10,6.70
2013,04,01,01,11,6.70
2013,04,01,01,12,6.70
2013,04,01,01,13,6.70
2013,04,01,01,14,6.70
2013,04,01,01,15,6.70
2013,04,01,01,16,6.60
2013,04,01,01,17,6.60
2013,04,01,01,18,6.60
2013,04,01,01,19,6.60
2013,04,01,01,20,6.60
2013,04,01,01,21,6.60
2013,04,01,01,22,6.60
2013,04,01,01,23,6.60
2013,04,01,01,24,6.60
2013,04,01,01,25,6.60
2013,04,01,01,26,6.50
2013,04,01,01,27,6.40
2013,04,01,01,28,6.40
2013,04,01,01,29,6.40
2013,04,01,01,30,6.40
2013,04,01,01,31,6.40
2013,04,01,01,32,6.40
2013,04,01,01,33,6.40
2013,04,01,01,34,6.40
2013,04,01,01,35,6.40
2013,04,01,01,36,6.40
2013,04,01,01,37,6.40
2013,04,01,01,38,6.40
2013,04,01,01,39,6.40
2013,04,01,01,40,6.40
2013,04,01,01,41,6.40
2013,04,01,01,42,6.40
2013,04,01,01,43,6.40
2013,04,01,01,44,6.40
2013,04,01,01,45,6.40
2013,04,01,01,46,6.40
2013,04,01,01,47,6.30
2013,04,01,01,48,6.30
2013,04,01,01,49,6.30
2013,04,01,01,50,6.30
2013,04,01,01,51,6.30
2013,04,01,01,52,6.30
2013,04,01,01,53,6.30
2013,04,01,01,54,6.30
2013,04,01,01,55,6.30
2013,04,01,01,56,6.20
2013,04,01,01,57,6.20
2013,04,01,01,58,6.20
2013,04,01,01,59,6.20
2013,04,01,02,00,6.20
2013,04,01,02,01,6.20
2013,04,01,02,02,6.20
2013,04,01,02,03,6.20
2013,04,01,02,04,6.20
2013,04,01,02,05,6.20
2013,04,01,02,06,6.20
2013,04,01,02,07,6.20
2013,04,01,02,08,6.20
2013,04,01,02,09,6.20
2013,04,01,02,10,6.20
2013,04,01,02,11,6.20
2013,04,01,02,12,6.20
2013,04,01,02,13,6.20
2013,04,01,02,14,6.20
2013,04,01,02,15,6.20
2013,04,01,02,16,6.20
2013,04,01,02,17,6.20
2013,04,01,02,18,6.20
2013,04,01,02,19,6.10
2013,04,01,02,20,6.10
2013,04,01,02,21,6.10
2013,04,01,02,22,6.10
2013,04,01,02,23,6.10
2013,04,01,02,24,6.10
2013,04,01,02,25,6.00
2013,04,01,02,26,6.00
2013,04,01,02,27,6.00
2013,04,01,02,28,6.00
2013,04,01,02,29,6.00
2013,04,01,02,30,6.00
2013,04,01,02,31,6.00
2013,04,01,02,32,6.00
2013,04,01,02,33,6.00
2013,04,01,02,34,6.00
2013,04,01,02,35,6.00
2013,04,01,02,36,6.00
2013,04,01,02,37,6.00
2013,04,01,02,38,6.00
2013,04,01,02,39,6.00
2013,04,01,02,40,6.00
2013,04,01,02,41,6.00
2013,04,01,02,42,5.90
2013,04,01,02,43,5.90
2013,04,01,02,44,5.90
2013,04,01,02,45,5.90
2013,04,01,02,46,5.90
2013,04,01,02,47,5.90
2013,04,01,02,48,5.90
2013,04,01,02,49,5.90
2013,04,01,02,50,5.90
2013,04,01,02,51,5.80
2013,04,01,02,52,5.80
2013,04,01,02,53,5.80
2013,04,01,02,54,5.90
2013,04,01,02,55,5.90
2013,04,01,02,56,5.90
2013,04,01,02,57,5.90
2013,04,01,02,58,5.90
2013,04,01,02,59,5.90
2013,04,01,03,00,5.90
2013,04,01,03,01,5.90
2013,04,01,03,02,5.90
2013,04,01,03,03,5.90
2013,04,01,03,04,5.80
2013,04,01,03,05,5.80
2013,04,01,03,06,5.80
2013,04,01,03,07,5.70
2013,04,01,03,08,5.70
2013,04,01,03,09,5.70
2013,04,01,03,10,5.70
2013,04,01,03,11,5.60
2013,04,01,03,12,5.60
2013,04,01,03,13,5.60
2013,04,01,03,14,5.50
2013,04,01,03,15,5.50
2013,04,01,03,16,5.50
2013,04,01,03,17,5.40
2013,04,01,03,18,5.40
2013,04,01,03,19,5.40
2013,04,01,03,20,5.40
2013,04,01,03,21,5.40
2013,04,01,03,22,5.40
2013,04,01,03,23,5.30
2013,04,01,03,24,5.30
2013,04,01,03,25,5.30
2013,04,01,03,26,5.30
2013,04,01,03,27,5.30
2013,04,01,03,28,5.30
2013,04,01,03,29,5.40
2013,04,01,03,30,5.40
2013,04,01,03,31,5.40
2013,04,01,03,32,5.40
2013,04,01,03,33,5.40
2013,04,01,03,34,5.40
2013,04,01,03,35,5.40
2013,04,01,03,36,5.30
2013,04,01,03,37,5.30
2013,04,01,03,38,5.30
2013,04,01,03,39,5.30
2013,04,01,03,40,5.30
2013,04,01,03,41,5.30
2013,04,01,03,42,5.30
2013,04,01,03,43,5.30
2013,04,01,03,44,5.30
2013,04,01,03,45,5.30
2013,04,01,03,46,5.30
2013,04,01,03,47,5.30
2013,04,01,03,48,5.30
2013,04,01,03,49,5.30
2013,04,01,03,50,5.30
2013,04,01,03,51,5.20
2013,04,01,03,52,5.20
2013,04,01,03,53,5.20
2013,04,01,03,54,5.20
2013,04,01,03,55,5.20
2013,04,01,03,56,5.20
2013,04,01,03,57,5.10
2013,04,01,03,58,5.10
2013,04,01,03,59,5.10
2013,04,01,04,00,5.10
2013,04,01,04,01,5.10
2013,04,01,04,02,5.10
2013,04,01,04,03,5.10
2013,04,01,04,04,5.10
2013,04,01,04,05,5.10
2013,04,01,04,06,5.10
2013,04,01,04,07,5.10
2013,04,01,04,08,5.10
2013,04,01,04,09,5.10
2013,04,01,04,10,5.10
2013,04,01,04,11,5.00
2013,04,01,04,12,4.90
2013,04,01,04,13,4.90
2013,04,01,04,14,4.90
2013,04,01,04,15,4.90
2013,04,01,04,16,4.90
2013,04,01,04,17,4.90
2013,04,01,04,18,4.90
2013,04,01,04,19,4.90
2013,04,01,04,20,4.90
2013,04,01,04,21,4.90
2013,04,01,04,22,4.90
2013,04,01,04,23,4.90
2013,04,01,04,24,4.80
2013,04,01,04,25,4.80
2013,04,01,04,26,4.80
2013,04,01,04,27,4.80
2013,04,01,04,28,4.80
2013,04,01,04,29,4.80
2013,04,01,04,30,4.80
2013,04,01,04,31,4.80
2013,04,01,04,32,4.80
2013,04,01,04,33,4.80
2013,04,01,04,34,4.80
2013,04,01,04,35,4.80
2013,04,01,04,36,4.80
2013,04,01,04,37,4.80
2013,04,01,04,38,4.80
2013,04,01,04,39,4.80
2013,04,01,04,40,4.80
2013,04,01,04,41,4.80
2013,04,01,04,42,4.80
2013,04,01,04,43,4.80
2013,04,01,04,44,4.80
2013,04,01,04,45,4.80
2013,04,01,04,46,4.80
2013,04,01,04,47,4.80
2013,04,01,04,48,4.80
2013,04,01,04,49,4.80
2013,04,01,04,50,4.80
2013,04,01,04,51,4.80
2013,04,01,04,52,4.80
2013,04,01,04,53,4.80
2013,04,01,04,54,4.70
2013,04,01,04,55,4.70
2013,04,01,04,56,4.70
2013,04,01,04,57,4.70
2013,04,01,04,58,4.70
2013,04,01,04,59,4.70
2013,04,01,05,00,4.80
2013,04,01,05,01,4.80
2013,04,01,05,02,4.80
2013,04,01,05,03,4.80
2013,04,01,05,04,4.80
2013,04,01,05,05,4.80
2013,04,01,05,06,4.80
2013,04,01,05,07,4.80
2013,04,01,05,08,4.70
2013,04,01,05,09,4.70
2013,04,01,05,10,4.70
2013,04,01,05,11,4.70
2013,04,01,05,12,4.60
2013,04,01,05,13,4.60
2013,04,01,05,14,4.60
2013,04,01,05,15,4.60
2013,04,01,05,16,4.60
2013,04,01,05,17,4.60
2013,04,01,05,18,4.60
2013,04,01,05,19,4.60
2013,04,01,05,20,4.60
2013,04,01,05,21,4.60
2013,04,01,05,22,4.60
2013,04,01,05,23,4.60
2013,04,01,05,24,4.60
2013,04,01,05,25,4.70
2013,04,01,05,26,4.70
2013,04,01,05,27,4.70
2013,04,01,05,28,4.70
2013,04,01,05,29,4.70
2013,04,01,05,30,4.60
2013,04,01,05,31,4.60
2013,04,01,05,32,4.60
2013,04,01,05,33,4.60
2013,04,01,05,34,4.60
2013,04,01,05,35,4.60
2013,04,01,05,36,4.50
2013,04,01,05,37,4.50
2013,04,01,05,38,4.50
2013,04,01,05,39,4.40
2013,04,01,05,40,4.40
2013,04,01,05,41,4.40
2013,04,01,05,42,4.30
2013,04,01,05,43,4.30
2013,04,01,05,44,4.30
2013,04,01,05,45,4.30
2013,04,01,05,46,4.30
2013,04,01,05,47,4.30
2013,04,01,05,48,4.30
2013,04,01,05,49,4.30
2013,04,01,05,50,4.30
2013,04,01,05,51,4.40
2013,04,01,05,52,4.40
2013,04,01,05,53,4.40
2013,04,01,05,54,4.40
2013,04,01,05,55,4.40
2013,04,01,05,56,4.40
2013,04,01,05,57,4.40
2013,04,01,05,58,4.40
2013,04,01,05,59,4.50
2013,04,01,06,00,4.50
2013,04,01,06,01,4.50
2013,04,01,06,02,4.50
2013,04,01,06,03,4.50
2013,04,01,06,04,4.50
2013,04,01,06,05,4.50
2013,04,01,06,06,4.50
2013,04,01,06,07,4.50
2013,04,01,06,08,4.50
2013,04,01,06,09,4.50
2013,04,01,06,10,4.40
2013,04,01,06,11,4.40
2013,04,01,06,12,4.40
2013,04,01,06,13,4.40
2013,04,01,06,14,4.30
2013,04,01,06,15,4.30
2013,04,01,06,16,4.30
2013,04,01,06,17,4.30
2013,04,01,06,18,4.20
2013,04,01,06,19,4.20
2013,04,01,06,20,4.20
2013,04,01,06,21,4.20
2013,04,01,06,22,4.20
2013,04,01,06,23,4.20
2013,04,01,06,24,4.10
2013,04,01,06,25,4.10
2013,04,01,06,26,4.10
2013,04,01,06,27,4.10
2013,04,01,06,28,4.10
2013,04,01,06,29,4.10
2013,04,01,06,30,4.10
2013,04,01,06,31,4.00
2013,04,01,06,32,4.00
2013,04,01,06,33,4.00
2013,04,01,06,34,4.00
2013,04,01,06,35,4.00
2013,04,01,06,36,4.10
2013,04,01,06,37,4.10
2013,04,01,06,38,4.10
2013,04,01,06,39,4.10
2013,04,01,06,40,4.10
2013,04,01,06,41,4.10
2013,04,01,06,42,4.10
2013,04,01,06,43,4.10
2013,04,01,06,44,4.10
2013,04,01,06,45,4.10
2013,04,01,06,46,4.10
2013,04,01,06,47,4.00
2013,04,01,06,48,4.00
2013,04,01,06,49,4.00
2013,04,01,06,50,4.00
2013,04,01,06,51,4.00
2013,04,01,06,52,4.00
2013,04,01,06,53,4.00
2013,04,01,06,54,4.00
2013,04,01,06,55,4.00
2013,04,01,06,56,4.00
2013,04,01,06,57,4.00
2013,04,01,06,58,3.90
2013,04,01,06,59,3.90
2013,04,01,07,00,3.90
2013,04,01,07,01,3.90
2013,04,01,07,02,3.90
2013,04,01,07,03,3.90
2013,04,01,07,04,3.90
2013,04,01,07,05,3.90
2013,04,01,07,06,3.90
2013,04,01,07,07,3.90
2013,04,01,07,08,3.90
2013,04,01,07,09,3.90
2013,04,01,07,10,3.90
2013,04,01,07,11,3.90
2013,04,01,07,12,3.90
2013,04,01,07,13,3.90
2013,04,01,07,14,3.90
2013,04,01,07,15,3.90
2013,04,01,07,16,3.90
2013,04,01,07,17,3.90
2013,04,01,07,18,3.90
2013,04,01,07,19,3.90
2013,04,01,07,20,3.90
2013,04,01,07,21,4.00
2013,04,01,07,22,4.00
2013,04,01,07,23,4.00
2013,04,01,07,24,4.00
2013,04,01,07,25,4.00
2013,04,01,07,26,4.10
2013,04,01,07,27,4.10
2013,04,01,07,28,4.20
2013,04,01,07,29,4.20
2013,04,01,07,30,4.20
2013,04,01,07,31,4.20
2013,04,01,07,32,4.20
2013,04,01,07,33,4.20
2013,04,01,07,34,4.20
2013,04,01,07,35,4.20
2013,04,01,07,36,4.20
2013,04,01,07,37,4.30
2013,04,01,07,38,4.30
2013,04,01,07,39,4.30
2013,04,01,07,40,4.40
2013,04,01,07,41,4.40
2013,04,01,07,42,4.40
2013,04,01,07,43,4.50
2013,04,01,07,44,4.60
2013,04,01,07,45,4.70
2013,04,01,07,46,4.90
2013,04,01,07,47,5.00
2013,04,01,07,48,5.10
2013,04,01,07,49,5.10
2013,04,01,07,50,5.10
2013,04,01,07,51,5.20
2013,04,01,07,52,5.20
2013,04,01,07,53,5.20
2013,04,01,07,54,5.30
2013,04,01,07,55,5.30
2013,04,01,07,56,5.30
2013,04,01,07,57,5.40
2013,04,01,07,58,5.50
2013,04,01,07,59,5.60
2013,04,01,08,00,5.70
2013,04,01,08,01,5.70
2013,04,01,08,02,5.80
2013,04,01,08,03,5.90
2013,04,01,08,04,6.00
2013,04,01,08,05,6.10
2013,04,01,08,06,6.20
2013,04,01,08,07,6.20
2013,04,01,08,08,6.30
2013,04,01,08,09,6.30
2013,04,01,08,10,6.30
2013,04,01,08,11,6.40
2013,04,01,08,12,6.40
2013,04,01,08,13,6.40
2013,04,01,08,14,6.50
2013,04,01,08,15,6.60
2013,04,01,08,16,6.60
2013,04,01,08,17,6.70
2013,04,01,08,18,6.70
2013,04,01,08,19,6.80
2013,04,01,08,20,7.00
2013,04,01,08,21,7.10
2013,04,01,08,22,7.30
2013,04,01,08,23,7.40
2013,04,01,08,24,7.50
2013,04,01,08,25,7.60
2013,04,01,08,26,7.60
2013,04,01,08,27,7.70
2013,04,01,08,28,7.80
2013,04,01,08,29,7.80
2013,04,01,08,30,7.90
2013,04,01,08,31,8.00
2013,04,01,08,32,8.10
2013,04,01,08,33,8.20
2013,04,01,08,34,8.30
2013,04,01,08,35,8.40
2013,04,01,08,36,8.40
2013,04,01,08,37,8.50
2013,04,01,08,38,8.60
2013,04,01,08,39,8.60
2013,04,01,08,40,8.70
2013,04,01,08,41,8.70
2013,04,01,08,42,8.90
2013,04,01,08,43,8.90
2013,04,01,08,44,9.00
2013,04,01,08,45,9.10
2013,04,01,08,46,9.20
2013,04,01,08,47,9.20
2013,04,01,08,48,9.20
2013,04,01,08,49,9.20
2013,04,01,08,50,9.20
2013,04,01,08,51,9.20
2013,04,01,08,52,9.30
2013,04,01,08,53,9.40
2013,04,01,08,54,9.50
2013,04,01,08,55,9.70
2013,04,01,08,56,9.70
2013,04,01,08,57,9.90
2013,04,01,08,58,9.90
2013,04,01,08,59,10.00
2013,04,01,09,00,10.10
2013,04,01,09,01,10.10
2013,04,01,09,02,10.10
2013,04,01,09,03,10.10
2013,04,01,09,04,10.10
2013,04,01,09,05,10.20
2013,04,01,09,06,10.20
2013,04,01,09,07,10.20
2013,04,01,09,08,10.20
2013,04,01,09,09,10.20
2013,04,01,09,10,10.20
2013,04,01,09,11,10.20
2013,04,01,09,12,10.20
2013,04,01,09,13,10.20
2013,04,01,09,14,10.20
2013,04,01,09,15,10.30
2013,04,01,09,16,10.30
2013,04,01,09,17,10.40
2013,04,01,09,18,10.40
2013,04,01,09,19,10.50
2013,04,01,09,20,10.60
2013,04,01,09,21,10.60
2013,04,01,09,22,10.70
2013,04,01,09,23,10.80
2013,04,01,09,24,10.80
2013,04,01,09,25,10.90
2013,04,01,09,26,10.90
2013,04,01,09,27,11.00
2013,04,01,09,28,11.10
2013,04,01,09,29,11.10
2013,04,01,09,30,11.10
2013,04,01,09,31,11.20
2013,04,01,09,32,11.30
2013,04,01,09,33,11.40
2013,04,01,09,34,11.40
2013,04,01,09,35,11.40
2013,04,01,09,36,11.40
2013,04,01,09,37,11.50
2013,04,01,09,38,11.60
2013,04,01,09,39,11.60
2013,04,01,09,40,11.70
2013,04,01,09,41,11.80
2013,04,01,09,42,11.80
2013,04,01,09,43,11.90
2013,04,01,09,44,11.90
2013,04,01,09,45,12.00
2013,04,01,09,46,12.00
2013,04,01,09,47,12.10
2013,04,01,09,48,12.10
2013,04,01,09,49,12.00
2013,04,01,09,50,12.00
2013,04,01,09,51,12.00
2013,04,01,09,52,11.90
2013,04,01,09,53,12.00
2013,04,01,09,54,12.00
2013,04,01,09,55,12.00
2013,04,01,09,56,12.00
2013,04,01,09,57,12.00
2013,04,01,09,58,12.10
2013,04,01,09,59,12.20
2013,04,01,10,00,12.30
2013,04,01,10,01,12.30
2013,04,01,10,02,12.20
2013,04,01,10,03,12.10
2013,04,01,10,04,12.00
2013,04,01,10,05,11.90
2013,04,01,10,06,11.90
2013,04,01,10,07,11.90
2013,04,01,10,08,11.80
2013,04,01,10,09,11.80
2013,04,01,10,10,11.70
2013,04,01,10,11,11.70
2013,04,01,10,12,11.60
2013,04,01,10,13,11.60
2013,04,01,10,14,11.60
2013,04,01,10,15,11.60
2013,04,01,10,16,11.50
2013,04,01,10,17,11.40
2013,04,01,10,18,11.40
2013,04,01,10,19,11.40
2013,04,01,10,20,11.40
2013,04,01,10,21,11.50
2013,04,01,10,22,11.60
2013,04,01,10,23,11.70
2013,04,01,10,24,11.80
2013,04,01,10,25,11.90
2013,04,01,10,26,11.90
2013,04,01,10,27,11.90
2013,04,01,10,28,12.00
2013,04,01,10,29,12.10
2013,04,01,10,30,12.20
2013,04,01,10,31,12.30
2013,04,01,10,32,12.30
2013,04,01,10,33,12.40
2013,04,01,10,34,12.40
2013,04,01,10,35,12.40
2013,04,01,10,36,12.30
2013,04,01,10,37,12.30
2013,04,01,10,38,12.30
2013,04,01,10,39,12.30
2013,04,01,10,40,12.30
2013,04,01,10,41,12.30
2013,04,01,10,42,12.30
2013,04,01,10,43,12.30
2013,04,01,10,44,12.20
2013,04,01,10,45,12.30
2013,04,01,10,46,12.30
2013,04,01,10,47,12.30
2013,04,01,10,48,12.30
2013,04,01,10,49,12.30
2013,04,01,10,50,12.30
2013,04,01,10,51,12.10
2013,04,01,10,52,12.10
2013,04,01,10,53,12.10
2013,04,01,10,54,12.10
2013,04,01,10,55,12.20
2013,04,01,10,56,12.20
2013,04,01,10,57,12.20
2013,04,01,10,58,12.20
2013,04,01,10,59,12.30
2013,04,01,11,00,12.30
2013,04,01,11,01,12.30
2013,04,01,11,02,12.30
2013,04,01,11,03,12.40
2013,04,01,11,04,12.40
2013,04,01,11,05,12.30
2013,04,01,11,06,12.40
2013,04,01,11,07,12.30
2013,04,01,11,08,12.30
2013,04,01,11,09,12.30
2013,04,01,11,10,12.30
2013,04,01,11,11,12.30
2013,04,01,11,12,12.30
2013,04,01,11,13,12.50
2013,04,01,11,14,12.60
2013,04,01,11,15,12.60
2013,04,01,11,16,12.70
2013,04,01,11,17,12.80
2013,04,01,11,18,12.80
2013,04,01,11,19,12.80
2013,04,01,11,20,12.80
2013,04,01,11,21,12.80
2013,04,01,11,22,12.80
2013,04,01,11,23,12.80
2013,04,01,11,24,12.80
2013,04,01,11,25,12.80
2013,04,01,11,26,12.80
2013,04,01,11,27,13.00
2013,04,01,11,28,13.00
2013,04,01,11,29,12.80
2013,04,01,11,30,12.80
2013,04,01,11,31,12.70
2013,04,01,11,32,12.60
2013,04,01,11,33,12.50
2013,04,01,11,34,12.50
2013,04,01,11,35,12.40
2013,04,01,11,36,12.40
2013,04,01,11,37,12.30
2013,04,01,11,38,12.40
2013,04,01,11,39,12.50
2013,04,01,11,40,12.50
2013,04,01,11,41,12.40
2013,04,01,11,42,12.40
2013,04,01,11,43,12.30
2013,04,01,11,44,12.30
2013,04,01,11,45,12.30
2013,04,01,11,46,12.40
2013,04,01,11,47,12.50
2013,04,01,11,48,12.60
2013,04,01,11,49,12.70
2013,04,01,11,50,12.80
2013,04,01,11,51,12.70
2013,04,01,11,52,12.70
2013,04,01,11,53,12.80
2013,04,01,11,54,12.70
2013,04,01,11,55,12.70
2013,04,01,11,56,12.70
2013,04,01,11,57,12.70
2013,04,01,11,58,12.70
2013,04,01,11,59,12.60
2013,04,01,12,00,12.60
2013,04,01,12,01,12.60
2013,04,01,12,02,12.70
2013,04,01,12,03,12.70
2013,04,01,12,04,12.70
2013,04,01,12,05,12.70
2013,04,01,12,06,12.60
2013,04,01,12,07,12.60
2013,04,01,12,08,12.60
2013,04,01,12,09,12.80
2013,04,01,12,10,12.80
2013,04,01,12,11,12.90
2013,04,01,12,12,13.00
2013,04,01,12,13,13.10
2013,04,01,12,14,13.10
2013,04,01,12,15,13.20
2013,04,01,12,16,13.00
2013,04,01,12,17,12.90
2013,04,01,12,18,12.80
2013,04,01,12,19,12.80
2013,04,01,12,20,12.80
2013,04,01,12,21,12.90
2013,04,01,12,22,13.00
2013,04,01,12,23,13.00
2013,04,01,12,24,13.00
2013,04,01,12,25,13.00
2013,04,01,12,26,13.00
2013,04,01,12,27,13.00
2013,04,01,12,28,13.00
2013,04,01,12,29,13.10
2013,04,01,12,30,13.10
2013,04,01,12,31,13.10
2013,04,01,12,32,13.00
2013,04,01,12,33,13.00
2013,04,01,12,34,13.10
2013,04,01,12,35,13.20
2013,04,01,12,36,13.20
2013,04,01,12,37,13.30
2013,04,01,12,38,13.30
2013,04,01,12,39,13.20
2013,04,01,12,40,13.20
2013,04,01,12,41,13.20
2013,04,01,12,42,13.20
2013,04,01,12,43,13.20
2013,04,01,12,44,13.20
2013,04,01,12,45,13.20
2013,04,01,12,46,13.20
2013,04,01,12,47,13.10
2013,04,01,12,48,13.00
2013,04,01,12,49,13.10
2013,04,01,12,50,13.20
2013,04,01,12,51,13.10
2013,04,01,12,52,13.10
2013,04,01,12,53,13.00
2013,04,01,12,54,13.00
2013,04,01,12,55,13.10
2013,04,01,12,56,13.10
2013,04,01,12,57,13.10
2013,04,01,12,58,13.10
2013,04,01,12,59,13.10
2013,04,01,13,00,13.30
2013,04,01,13,01,13.30
2013,04,01,13,02,13.30
2013,04,01,13,03,13.30
2013,04,01,13,04,13.30
2013,04,01,13,05,13.40
2013,04,01,13,06,13.30
2013,04,01,13,07,13.20
2013,04,01,13,08,13.20
2013,04,01,13,09,13.20
2013,04,01,13,10,13.20
2013,04,01,13,11,13.10
2013,04,01,13,12,13.20
2013,04,01,13,13,13.20
2013,04,01,13,14,13.30
2013,04,01,13,15,13.30
2013,04,01,13,16,13.30
2013,04,01,13,17,13.40
2013,04,01,13,18,13.50
2013,04,01,13,19,13.50
2013,04,01,13,20,13.50
2013,04,01,13,21,13.50
2013,04,01,13,22,13.50
2013,04,01,13,23,13.40
2013,04,01,13,24,13.40
2013,04,01,13,25,13.40
2013,04,01,13,26,13.50
2013,04,01,13,27,13.50
2013,04,01,13,28,13.50
2013,04,01,13,29,13.60
2013,04,01,13,30,13.50
2013,04,01,13,31,13.50
2013,04,01,13,32,13.40
2013,04,01,13,33,13.50
2013,04,01,13,34,13.50
2013,04,01,13,35,13.60
2013,04,01,13,36,13.60
2013,04,01,13,37,13.70
2013,04,01,13,38,13.70
2013,04,01,13,39,13.90
2013,04,01,13,40,13.90
2013,04,01,13,41,13.90
2013,04,01,13,42,13.90
2013,04,01,13,43,14.00
2013,04,01,13,44,14.00
2013,04,01,13,45,14.00
2013,04,01,13,46,14.00
2013,04,01,13,47,13.90
2013,04,01,13,48,13.90
2013,04,01,13,49,13.90
2013,04,01,13,50,13.90
2013,04,01,13,51,13.80
2013,04,01,13,52,13.70
2013,04,01,13,53,13.70
2013,04,01,13,54,13.70
2013,04,01,13,55,13.50
2013,04,01,13,56,13.50
2013,04,01,13,57,13.60
2013,04,01,13,58,13.60
2013,04,01,13,59,13.50
2013,04,01,14,00,13.50
2013,04,01,14,01,13.50
2013,04,01,14,02,13.40
2013,04,01,14,03,13.30
2013,04,01,14,04,13.30
2013,04,01,14,05,13.30
2013,04,01,14,06,13.30
2013,04,01,14,07,13.30
2013,04,01,14,08,13.30
2013,04,01,14,09,13.10
2013,04,01,14,10,13.10
2013,04,01,14,11,13.10
2013,04,01,14,12,13.00
2013,04,01,14,13,13.00
2013,04,01,14,14,13.00
2013,04,01,14,15,13.00
2013,04,01,14,16,12.90
2013,04,01,14,17,13.00
2013,04,01,14,18,13.10
2013,04,01,14,19,13.20
2013,04,01,14,20,13.20
2013,04,01,14,21,13.20
2013,04,01,14,22,13.20
2013,04,01,14,23,13.10
2013,04,01,14,24,13.10
2013,04,01,14,25,13.20
2013,04,01,14,26,13.30
2013,04,01,14,27,13.20
2013,04,01,14,28,13.20
2013,04,01,14,29,13.10
2013,04,01,14,30,13.10
2013,04,01,14,31,13.00
2013,04,01,14,32,12.90
2013,04,01,14,33,12.90
2013,04,01,14,34,12.70
2013,04,01,14,35,12.70
2013,04,01,14,36,12.60
2013,04,01,14,37,12.50
2013,04,01,14,38,12.50
2013,04,01,14,39,12.40
2013,04,01,14,40,12.40
2013,04,01,14,41,12.30
2013,04,01,14,42,12.30
2013,04,01,14,43,12.20
2013,04,01,14,44,12.10
2013,04,01,14,45,12.00
2013,04,01,14,46,11.90
2013,04,01,14,47,11.80
2013,04,01,14,48,11.90
2013,04,01,14,49,11.90
2013,04,01,14,50,11.80
2013,04,01,14,51,11.70
2013,04,01,14,52,11.60
2013,04,01,14,53,11.60
2013,04,01,14,54,11.60
2013,04,01,14,55,11.50
2013,04,01,14,56,11.40
2013,04,01,14,57,11.40
2013,04,01,14,58,11.40
2013,04,01,14,59,11.40
2013,04,01,15,00,11.40
2013,04,01,15,01,11.50
2013,04,01,15,02,11.60
2013,04,01,15,03,11.60
2013,04,01,15,04,11.70
2013,04,01,15,05,11.80
2013,04,01,15,06,11.80
2013,04,01,15,07,11.80
2013,04,01,15,08,11.90
2013,04,01,15,09,12.10
2013,04,01,15,10,12.10
2013,04,01,15,11,12.10
2013,04,01,15,12,12.10
2013,04,01,15,13,12.10
2013,04,01,15,14,12.10
2013,04,01,15,15,12.00
2013,04,01,15,16,12.00
2013,04,01,15,17,11.90
2013,04,01,15,18,12.00
2013,04,01,15,19,12.00
2013,04,01,15,20,11.80
2013,04,01,15,21,11.60
2013,04,01,15,22,11.40
2013,04,01,15,23,11.40
2013,04,01,15,24,11.40
2013,04,01,15,25,11.50
2013,04,01,15,26,11.50
2013,04,01,15,27,11.40
2013,04,01,15,28,11.40
2013,04,01,15,29,11.40
2013,04,01,15,30,11.40
2013,04,01,15,31,11.40
2013,04,01,15,32,11.40
2013,04,01,15,33,11.40
2013,04,01,15,34,11.50
2013,04,01,15,35,11.60
2013,04,01,15,36,11.60
2013,04,01,15,37,11.60
2013,04,01,15,38,11.70
2013,04,01,15,39,11.80
2013,04,01,15,40,11.80
2013,04,01,15,41,11.90
2013,04,01,15,42,12.00
2013,04,01,15,43,11.90
2013,04,01,15,44,11.80
2013,04,01,15,45,11.80
2013,04,01,15,46,11.80
2013,04,01,15,47,11.80
2013,04,01,15,48,11.80
2013,04,01,15,49,11.80
2013,04,01,15,50,11.80
2013,04,01,15,51,11.80
2013,04,01,15,52,11.80
2013,04,01,15,53,11.80
2013,04,01,15,54,11.90
2013,04,01,15,55,11.90
2013,04,01,15,56,11.90
2013,04,01,15,57,11.90
2013,04,01,15,58,11.90
2013,04,01,15,59,11.90
2013,04,01,16,00,11.90
2013,04,01,16,01,11.90
2013,04,01,16,02,11.90
2013,04,01,16,03,11.90
2013,04,01,16,04,11.90
2013,04,01,16,05,11.90
2013,04,01,16,06,11.90
2013,04,01,16,07,11.90
2013,04,01,16,08,12.00
2013,04,01,16,09,12.00
2013,04,01,16,10,12.00
2013,04,01,16,11,12.00
2013,04,01,16,12,12.10
2013,04,01,16,13,12.20
2013,04,01,16,14,12.20
2013,04,01,16,15,12.20
2013,04,01,16,16,12.30
2013,04,01,16,17,12.20
2013,04,01,16,18,12.20
2013,04,01,16,19,12.20
2013,04,01,16,20,12.30
2013,04,01,16,21,12.30
2013,04,01,16,22,12.30
2013,04,01,16,23,12.30
2013,04,01,16,24,12.30
2013,04,01,16,25,12.30
2013,04,01,16,26,12.10
2013,04,01,16,27,12.10
2013,04,01,16,28,12.20
2013,04,01,16,29,12.30
2013,04,01,16,30,12.30
2013,04,01,16,31,12.20
2013,04,01,16,32,12.20
2013,04,01,16,33,12.30
2013,04,01,16,34,12.30
2013,04,01,16,35,12.40
2013,04,01,16,36,12.50
2013,04,01,16,37,12.50
2013,04,01,16,38,12.70
2013,04,01,16,39,12.80
2013,04,01,16,40,12.80
2013,04,01,16,41,12.80
2013,04,01,16,42,12.80
2013,04,01,16,43,12.80
2013,04,01,16,44,12.80
2013,04,01,16,45,12.90
2013,04,01,16,46,12.90
2013,04,01,16,47,13.00
2013,04,01,16,48,13.10
2013,04,01,16,49,13.20
2013,04,01,16,50,13.20
2013,04,01,16,51,13.30
2013,04,01,16,52,13.30
2013,04,01,16,53,13.40
2013,04,01,16,54,13.50
2013,04,01,16,55,13.60
2013,04,01,16,56,13.60
2013,04,01,16,57,13.80
2013,04,01,16,58,13.90
2013,04,01,16,59,14.00
2013,04,01,17,00,14.20
2013,04,01,17,01,14.20
2013,04,01,17,02,14.20
2013,04,01,17,03,14.20
2013,04,01,17,04,14.20
2013,04,01,17,05,14.30
2013,04,01,17,06,14.30
2013,04,01,17,07,14.40
2013,04,01,17,08,14.50
2013,04,01,17,09,14.60
2013,04,01,17,10,14.60
2013,04,01,17,11,14.70
2013,04,01,17,12,14.70
2013,04,01,17,13,14.80
2013,04,01,17,14,14.80
2013,04,01,17,15,14.80
2013,04,01,17,16,14.80
2013,04,01,17,17,14.90
2013,04,01,17,18,14.90
2013,04,01,17,19,15.00
2013,04,01,17,20,15.10
2013,04,01,17,21,15.10
2013,04,01,17,22,15.00
2013,04,01,17,23,15.00
2013,04,01,17,24,15.00
2013,04,01,17,25,15.00
2013,04,01,17,26,15.00
2013,04,01,17,27,15.00
2013,04,01,17,28,15.10
2013,04,01,17,29,15.10
2013,04,01,17,30,15.20
2013,04,01,17,31,15.20
2013,04,01,17,32,15.20
2013,04,01,17,33,15.20
2013,04,01,17,34,15.20
2013,04,01,17,35,15.10
2013,04,01,17,36,15.10
2013,04,01,17,37,15.00
2013,04,01,17,38,14.90
2013,04,01,17,39,14.90
2013,04,01,17,40,14.90
2013,04,01,17,41,14.90
2013,04,01,17,42,14.80